Location: Dos Palmas
(32.4468°N, 116.8732°W)
Time: 00:40:39
(UTC+00:00)

Meteor 2-20 Rocket - Pass Details

Date: 20 June 2021
Orbit: 940 x 959 km, 82.5° (Epoch: 01 August)

Event Time Altitude Azimuth Distance (km) Brightness Sun altitude
Exits shadow 04:17:20 - 181° (S) 3,122 6.8 -14.7°
Reaches altitude 10° 04:18:32 10° 180° (S) 2,669 6.4 -14.9°
Maximum altitude 04:24:38 80° 94° (E) 967 4.4 -15.8°
Drops below altitude 10° 04:30:44 10° 9° (N) 2,671 7.2 -16.8°
Sets 04:33:13 0° 8° (N) 3,617 8.0 -17.2°
